Starlink 5021

operational
NORAD ID: 53902 Int'l Des: 2022-119 Owner: SPXS Country: US Constellation: starlink
LEOCIRCULAR

About Starlink 5021

Description loading...

Live Position

Loading 3D Globe...

Upcoming Passes

Altitude History

Altitude vs Time

uPlot chart will show altitude changes over time

Two-Line Element Set

1 53902U 22119S 25302.82657707 -.00000635 00000-0 -21807-4 0 9996
2 53902 53.2164 141.3418 0001402 87.0220 273.0932 15.08837343172637
Epoch: Oct 29, 2025 • Age: 26 hours

Current Status

Altitude 540.1 km
Velocity 7.60 km/s
Sub-Earth Point 23.90°N, 155.24°E
Launch Date Sep 24, 2022
Age 3 years
Type internet

Technical Details

Classification Payload
Mass 305.00 kg
Dry Mass 290.00 kg
Total Mass 305.00 kg
Length 0.20 m
Diameter 2.80 m
Span 9.00 m
Shape Box + pan
Manufacturer SPXS
Bus Type Starlink
Phase Status In Orbit
Owner/State SPXS/US

Large Constellations

Loading constellations...